Location: Esterre
(42.8749°N, 0.0062°E)
Time: 12:37:59
(UTC+00:00)

Daily predictions for brighter satellites

Satellite Brightness Start Highest point End
(mag) Time Altitude Azimuth Time Altitude Azimuth Time Altitude Azimuth
STARLINK-1229 3.8 18:46:57 10° WSW 18:49:59 48° NNW 18:53:02 10° NE
Cosmos 2098 Rocket 4.2 18:46:33 10° NNW 18:49:59 44° W 18:54:14 10° SSW
STARLINK-1236 3.6 18:45:59 10° SW 18:50:03 86° SE 18:54:09 10° NE
STARLINK-1271 3.8 18:47:25 10° WSW 18:50:26 48° NNW 18:53:29 10° NE
Cosmos 304 Rocket 4.0 18:46:09 10° N 18:50:48 49° ENE 18:55:26 10° SE
STARLINK-1270 3.8 18:47:53 10° WSW 18:50:55 47° NNW 18:53:57 10° NE
STARLINK-1154 3.9 18:48:20 10° WSW 18:51:21 47° NNW 18:54:23 10° NE
COSMO-SKYMED 1 4.5 18:47:37 10° N 18:51:36 36° WNW 18:55:35 10° SW
STARLINK-1116 4.2 18:48:21 10° NW 18:52:14 44° NNE 18:56:06 10° E
STARLINK-1197 3.9 18:49:14 10° WSW 18:52:15 46° NNW 18:55:18 10° NE
Cosmos 1269 Rocket 4.3 18:47:33 10° S 18:52:33 45° ESE 18:57:35 10° NNE
STARLINK-1189 3.9 18:49:42 10° WSW 18:52:42 46° NNW 18:55:44 10° NE
SeaSat 1 3.6 18:47:58 10° NNE 18:52:44 49° WNW 18:57:28 10° SW
STARLINK-1187 4.1 18:50:36 10° WSW 18:53:35 41° NNW 18:56:35 10° NE
STARLINK-1188 3.9 18:50:37 10° WSW 18:53:37 45° NNW 18:56:39 10° NE
STARLINK-1198 3.9 18:50:37 10° WSW 18:53:38 45° NNW 18:56:39 10° NE
STARLINK-1235 4.4 18:51:22 10° W 18:54:18 36° NNW 18:57:17 10° NE
STARLINK-1199 4.0 18:52:34 10° WSW 18:55:35 44° NNW 18:58:36 10° NE
STARLINK-1191 4.0 18:53:00 10° WSW 18:56:01 43° NNW 18:59:03 10° NE
STARLINK-1210 4.0 18:53:28 10° WSW 18:56:29 43° NNW 18:59:30 10° NE
SL-08 ROCKET BODY 4.5 18:50:28 10° N 18:56:34 63° E 19:02:30 10° SSE
STARLINK-1221 4.1 18:53:55 10° WSW 18:56:56 43° NNW 18:59:57 10° NE
STARLINK-1219 4.1 18:54:23 10° WSW 18:57:24 42° NNW 19:00:25 10° NE
STARLINK-1222 4.1 18:54:50 10° WSW 18:57:50 42° NNW 19:00:52 10° NE
STARLINK-1211 4.1 18:55:18 10° WSW 18:58:17 41° NNW 19:01:18 10° NE
YAOGAN 1 3.5 18:54:13 10° S 18:58:26 54° W 19:02:42 10° NNW
STARLINK-1118 2.7 18:56:19 10° WNW 18:58:27 48° SW 19:00:34 10° SE
STARLINK-1214 4.1 18:55:45 10° WSW 18:58:44 41° NNW 19:01:45 10° NE
ISS -1.6 18:56:35 10° NW 18:59:03 19° N 19:01:32 10° NE
STARLINK-1245 4.1 18:56:14 10° WSW 18:59:12 41° NNW 19:02:11 10° NE
STARLINK-1238 4.1 18:56:37 10° WSW 18:59:36 41° NNW 19:02:37 10° NE
STARLINK-1269 3.7 18:55:49 10° WSW 18:59:53 80° NW 19:03:59 10° NE
STARLINK-1205 4.2 18:57:34 10° WSW 19:00:31 40° NNW 19:03:30 10° NE
Cosmos 1455 Rocket 3.1 18:56:22 10° S 19:00:35 54° E 19:04:51 10° NNE
STARLINK-1204 4.2 18:58:02 10° W 19:01:00 39° NNW 19:03:58 10° NE
STARLINK-1094 4.0 18:57:35 10° NW 19:01:32 50° NNE 19:05:21 11° ESE
Cosmos 2297 4.1 18:56:54 10° NNW 19:02:21 45° ENE 19:07:48 10° SE
Cosmos 371 Rocket 4.0 18:57:36 10° NNW 19:02:21 59° WSW 19:07:06 10° S
S3M 4.1 18:58:01 10° S 19:04:23 84° E 19:10:49 10° N
STARLINK-1200 3.8 19:00:38 10° WSW 19:04:42 74° NW 19:08:47 10° NE
Cosmos 2237 Rocket 2.8 18:59:23 10° SW 19:04:56 62° WNW 19:10:33 10° NNE
STARLINK-1117 3.9 19:02:25 10° NW 19:06:23 53° NNE 19:10:00 12° ESE
Cosmos 1386 Rocket 4.4 19:01:35 10° N 19:07:39 78° E 19:13:39 10° S
Cosmos 1805 3.6 19:04:54 10° SSW 19:08:47 69° W 19:12:42 10° N
STARLINK-1192 3.9 19:05:24 10° WSW 19:09:28 69° NNW 19:13:32 10° NE
Cosmos 1892 Rocket 3.6 19:05:14 10° N 19:09:44 88° ENE 19:14:14 10° S
CZ-2C R/B 4.0 19:07:09 10° NE 19:10:23 17° E 19:13:37 10° SE
Cosmos 1626 Rocket 4.4 19:06:32 10° NNE 19:10:26 30° ENE 19:14:18 10° SE
STARLINK-1078 3.8 19:06:51 10° NW 19:10:50 57° NNE 19:14:17 14° ESE
BREEZE-M DEB (TANK) 3.5 18:59:53 10° WNW 19:12:33 71° SW 19:15:44 11° SE
Cosmos 2278 Rocket 3.4 19:07:59 10° NW 19:13:23 46° WSW 19:18:45 10° S
Meteor 2-5 Rocket 3.9 19:08:29 10° NNW 19:14:09 78° W 19:19:41 10° S
STARLINK-1244 4.0 19:10:21 10° WSW 19:14:23 64° NNW 19:18:27 10° NE
ARGOS 3.4 19:09:48 10° SE 19:14:59 49° ENE 19:20:10 10° N
STARLINK-1108 3.7 19:11:42 10° NW 19:15:43 62° NNE 19:18:58 15° ESE
Cosmos 1602 Rocket 4.5 19:14:32 10° NNE 19:18:26 29° ENE 19:21:45 13° SE
STARLINK-1138 4.1 19:14:57 10° WSW 19:19:00 59° NNW 19:23:03 10° NE
STARLINK-1071 3.6 19:16:21 10° NW 19:20:23 66° NNE 19:23:26 17° ESE
Cosmos 494 Rocket 4.3 19:15:46 10° SSW 19:20:53 71° WNW 19:26:06 10° NNE
Okean 1-7 Rocket 3.7 19:17:22 10° N 19:21:47 80° W 19:26:09 10° S
USA 186 2.0 19:18:51 10° SSE 19:22:13 54° ENE 19:25:32 10° N
STARLINK-1143 4.3 19:19:53 10° WSW 19:23:55 55° NNW 19:27:57 10° NE
STARLINK-1110 3.6 19:20:48 10° NW 19:24:51 71° NNE 19:27:43 19° ESE
Meteor 1-24 Rocket 3.7 19:19:52 10° N 19:25:25 85° W 19:30:45 10° S
STARLINK-1124 3.6 19:22:10 10° NW 19:26:20 74° NE 19:29:13 19° ESE
CZ-2C R/B 2.9 19:22:20 10° SSE 19:27:22 66° ENE 19:32:11 10° N
Cosmos 1544 Rocket 3.5 19:23:45 10° S 19:28:08 82° E 19:32:35 10° N
Cosmos 1470 2.9 19:26:28 10° S 19:30:12 50° E 19:33:59 10° NNE
Cosmos 1331 Rocket 4.2 19:25:43 10° NNW 19:30:52 73° WSW 19:36:00 10° S
STARLINK-1241 4.5 19:28:20 10° WSW 19:32:16 48° NNW 19:36:13 10° NE
Cosmos 883 Rocket 4.5 19:27:14 10° S 19:33:25 85° E 19:39:43 10° N
CZ-4 R/B 4.4 19:31:28 10° SW 19:33:46 15° W 19:36:04 10° NW
SPOT 3 Rocket 4.0 19:29:48 13° SE 19:34:09 44° ENE 19:39:06 10° N
STARLINK-1122 3.5 19:30:14 10° NW 19:34:18 83° NE 19:36:48 23° ESE
MOS 1 4.2 19:30:22 10° SSE 19:36:00 80° ENE 19:41:41 10° NNW
STARLINK-1126 3.5 19:35:12 10° NW 19:39:17 90° NE 19:41:36 25° SE
SJ-6B 2.8 19:36:17 10° SSE 19:40:17 70° ENE 19:44:24 10° N
Cosmos 2369 Rocket 3.2 19:35:36 10° N 19:40:37 31° NE 19:43:14 21° E
H-2A R/B 4.1 19:31:56 10° W 19:41:54 20° SW 19:45:34 10° S
Cosmos 1726 3.6 19:42:57 20° ENE 19:42:57 20° ENE 19:44:59 10° NE
Ariane Rocket 3.4 19:38:15 10° S 19:43:18 65° WSW 19:48:21 10° NNW
STARLINK-1082 3.5 19:39:42 10° NW 19:43:47 84° SW 19:45:55 27° SE
Cosmos 1758 3.2 19:40:06 10° S 19:44:09 70° E 19:48:14 10° NNE
Aureole 2 Rocket 3.9 19:43:09 10° N 19:45:54 21° ENE 19:45:56 21° ENE
NOSS 3-3 (A) 4.4 19:41:33 10° S 19:46:43 35° ESE 19:52:21 10° NE
NOSS 3-3 (C) 4.4 19:41:41 10° S 19:46:49 34° ESE 19:52:27 10° NE
STARLINK-1100 3.6 19:44:36 10° NW 19:48:42 78° SW 19:50:39 29° SE
CZ-2C R/B 3.7 19:45:59 10° NNE 19:50:43 64° ESE 19:55:22 10° S
STARLINK-1083 3.7 19:49:22 10° WNW 19:53:26 72° SW 19:55:12 32° SE
Cosmos 2184 Rocket 4.4 19:50:33 10° N 19:56:33 44° ENE 19:59:37 26° SE
IRIDIUM 106 4.4 19:51:41 10° N 19:56:50 56° E 20:00:12 21° SSE
STARLINK-1125 3.7 19:53:55 10° WNW 19:57:57 66° SW 19:59:33 34° SSE
STARLINK-1098 4.5 19:54:27 10° NW 19:58:21 38° NNE 19:59:43 29° ENE
SL-14 R/B 4.3 19:54:28 10° NNW 19:58:22 48° W 20:02:14 10° SSW
Cosmos 1943 3.8 20:01:05 30° SE 20:02:07 32° ESE 20:07:06 10° NE
Cosmos 1943 Rocket 2.3 19:56:48 10° NNW 20:02:15 55° ENE 20:04:35 33° ESE
STARLINK-1109 3.9 19:58:44 10° WNW 20:02:46 60° SW 20:04:12 36° SSE
Meteor 1-21 Rocket 4.2 19:57:33 10° N 20:03:05 62° ENE 20:06:08 26° SSE
STARLINK-1123 4.4 19:59:24 10° NW 20:03:20 40° NNE 20:04:30 32° ENE
Meteor 2-10 4.3 20:00:44 18° SSE 20:04:30 49° E 20:09:48 10° NNE
SL-8 R/B 4.4 20:00:46 10° WNW 20:05:21 45° N 20:07:34 26° ENE
Resurs 1-3 3.5 20:05:32 35° SSE 20:07:17 69° ENE 20:11:39 10° N
STARLINK-1091 4.0 20:03:35 10° WNW 20:07:35 55° SW 20:08:50 38° SSE
STARLINK-1097 4.3 20:04:21 10° NW 20:08:19 43° NNE 20:09:16 36° ENE
Cosmos 1626 3.8 20:06:33 10° NNW 20:09:54 34° W 20:13:16 10° SSW
ATLAS 2AS CENTAUR R/B 4.1 20:04:24 10° NNW 20:10:57 29° NNE 20:14:22 20° ENE
STARLINK-1099 4.1 20:09:20 10° NW 20:13:20 46° NNE 20:14:04 41° ENE
H-2A R/B 3.2 20:08:54 10° S 20:13:56 42° W 20:18:53 10° NNW
Aureole 3 3.6 20:12:25 12° SSW 20:16:01 80° W 20:21:02 10° N
SL-08 RB Rocket 4.2 20:12:30 15° S 20:16:05 60° W 20:20:35 10° NNW
Resurs 01 Rocket 1.6 20:16:28 52° ESE 20:17:12 61° ENE 20:21:33 10° N
USA 234 3.3 20:10:56 10° NE 20:17:30 81° NW 20:24:01 10° SW
STARLINK-1072 4.3 20:13:43 10° WNW 20:17:34 44° SW 20:18:25 38° S
Cosmos 2154 Rocket 4.5 20:11:40 10° N 20:17:39 41° ENE 20:18:59 37° ESE
STARLINK-1104 4.0 20:14:18 10° NW 20:18:20 49° NNE 20:18:51 46° NE
SL-16 R/B 3.4 20:14:12 10° SW 20:19:33 43° WNW 20:24:56 10° NNE
DMSP B5D2-2 3.9 20:15:03 10° NNE 20:20:17 85° ESE 20:25:31 10° SSW
Cosmos 2228 4.0 20:22:39 32° NE 20:22:39 32° NE 20:25:22 10° NNE
Abrixas rocket 3.0 20:18:36 10° WSW 20:20:45 43° W 20:20:45 43° W
STARLINK-1096 4.4 20:18:04 10° WNW 20:21:52 40° SW 20:22:34 37° SSW
STARLINK-1144 3.9 20:19:16 10° NW 20:23:20 53° NNE 20:23:38 51° NE
Cosmos 1953 2.4 20:23:07 27° SSW 20:25:11 73° W 20:29:10 10° N
STARLINK-1103 3.8 20:24:13 10° NW 20:28:19 57° NNE 20:28:25 57° NE
Nadezhda 1 Rocket 4.0 20:29:47 39° SSE 20:32:02 59° E 20:38:17 10° NNE
Cosmos 1992 Rocket 3.8 20:26:51 10° NNW 20:32:06 80° ENE 20:33:07 58° SE
STARLINK-1101 3.8 20:29:12 10° NW 20:33:11 61° NNE 20:33:11 61° NNE
ISS -2.3 20:33:17 10° NW 20:35:39 34° NNW 20:35:39 34° NNW
STARLINK-1102 3.8 20:34:09 10° NW 20:37:58 63° N 20:37:58 63° N
MetOp-B 4.1 20:40:10 61° E 20:40:37 64° ENE 20:45:57 10° N
Cosmos 1603 3.5 20:35:33 10° SSW 20:41:12 85° ESE 20:46:51 10° NNE
Cosmos 2251 Rocket 3.8 20:36:49 10° SSW 20:42:08 70° WNW 20:47:32 10° NNE
Meteor 1-16 Rocket 4.0 20:40:19 36° S 20:42:37 90° W 20:48:06 10° N
STARLINK-1111 3.9 20:39:08 10° NW 20:42:45 62° NNW 20:42:45 62° NNW
Cosmos 2084 Rocket 3.5 20:39:11 10° NW 20:43:30 82° WNW 20:43:30 82° WNW
Cosmos 1703 4.4 20:41:18 10° N 20:43:49 37° N 20:43:49 37° N
ERS-1 Rocket 4.2 20:48:38 29° NE 20:48:38 29° NE 20:51:55 10° N
STARLINK-1073 4.1 20:44:07 10° NW 20:47:33 58° NW 20:47:33 58° NW
Cosmos 2074 Rocket 4.1 20:43:56 10° NNW 20:50:11 72° W 20:53:01 35° S
CZ-2C R/B 3.0 20:46:00 10° N 20:51:07 61° WNW 20:55:39 13° SSW
STARLINK-1121 4.3 20:49:04 10° NW 20:52:19 53° NW 20:52:19 53° NW
Cosmos 292 Rocket 4.3 20:51:59 10° NNW 20:56:39 53° WSW 20:57:04 51° SW
Cosmos 1656 Rocket 3.8 20:56:50 10° NNW 21:02:03 59° NE 21:02:03 59° NE
Aureole 1 Rocket 4.3 21:01:51 59° SE 21:02:46 63° ESE 21:09:31 10° NNE
Cosmos 1610 Rocket 4.4 20:58:18 10° N 21:04:33 85° W 21:05:25 68° S
Meteor 1-11 4.2 20:58:52 10° N 21:04:29 77° NE 21:04:29 77° NE
COSMOS 2455 4.1 21:10:21 10° NNW 21:15:09 29° NE 21:15:09 29° NE
Cosmos 1726 4.4 21:17:22 23° WNW 21:17:22 23° WNW 21:20:14 10° NNW
Cosmos 2341 Rocket 4.1 21:17:02 10° N 21:22:43 67° NE 21:22:43 67° NE
Cosmos 2369 Rocket 3.0 21:19:25 10° NW 21:24:46 43° WSW 21:25:03 43° WSW
NOSS 3-4 (A) 4.0 21:23:09 10° NNW 21:30:05 61° NE 21:30:09 61° NE
NOSS 3-4 (C) 4.0 21:23:15 10° NNW 21:30:11 60° NE 21:30:14 60° NE
Terra 3.6 21:32:45 24° N 21:32:45 24° N 21:34:48 10° N
Spot 2 Rocket 4.5 21:35:52 44° WNW 21:35:52 44° WNW 21:40:04 10° NNW
SPOT 1/Viking Rocket 4.5 21:41:27 45° NW 21:41:27 45° NW 21:45:11 10° NNW
Cosmos 1943 Rocket 4.0 21:41:28 10° NW 21:45:32 21° W 21:46:08 21° WSW
Cosmos 1943 4.4 21:42:18 18° WSW 21:46:02 39° WNW 21:51:21 10° N
Resurs 01 Rocket 4.3 21:54:01 13° W 21:54:04 13° W 21:56:06 10° WNW
ATLAS 2AS CENTAUR R/B 3.0 21:55:18 10° NW 22:01:48 68° NW 22:01:48 68° NW
